Temperature
10 11 12 13 13 14 14 14 14 14 13 13 14 15 16 16 15 15 15 15 14 14 13 13 13 13 13 14 14 14 14 14 14 13 13 13 13 12 12 12 12 12 12 11
10 11 13 13 13 12 13 13 14 13 13 13 14 14 16 15 15 15 15 15 14 14 13 13 13 13 13 13 14 14 14 13 13 13 13 13 13 12 12 12 12 11 11 11
11 12 12 11 11 11 12 13 13 13 12 12 13 15 16 15 14 14 13 13 13 13 13 12 12 12 13 13 13 13 13 13 13 13 13 12 12 12 11 11 11 11 11 11
11 11 11 11 11 12 12 12 12 12 12 13 13 14 16 16 15 14 14 13 13 12 12 12 12 12 12 13 13 13 13 13 12 12 12 12 12 11 11 11 11 11 10 10
10 10 10 10 11 12 12 12 12 12 12 12 12 12 16 15 15 15 15 14 13 12 12 12 12 12 12 12 12 12 12 12 12 12 12 12 11 11 11 10 10 10 10 10
10 10 11 11 11 11 11 11 11 11 11 11 13 13 15 16 15 15 15 13 12 12 11 11 11 11 11 12 12 12 12 12 12 12 11 11 11 11 10 10 10 9 9 9
9 9 10 10 10 10 11 10 10 10 10 12 13 12 15 15 14 14 14 13 12 11 11 11 11 11 11 11 12 11 11 11 11 11 11 11 10 10 10 10 9 9 9 9
9 9 10 10 10 10 11 11 12 12 13 13 11 12 15 14 13 13 12 12 11 11 11 10 10 10 10 11 11 11 11 11 11 10 10 10 10 10 10 10 9 9 8 8
9 10 9 9 10 11 10 10 12 12 11 12 13 13 13 13 12 12 12 12 11 11 10 10 10 10 10 10 10 10 10 10 10 10 10 10 10 9 9 9 9 8 8 8
9 8 9 9 9 9 10 11 10 10 10 12 13 13 14 14 13 13 12 12 11 10 10 9 10 10 10 10 10 10 10 10 10 9 9 9 9 9 9 9 8 8 8 7
8 8 8 8 8 9 9 9 10 10 11 12 13 14 14 14 13 13 13 11 11 10 9 9 9 9 9 9 9 9 9 9 9 9 9 9 9 8 8 8 8 7 7 7
7 7 8 8 8 9 10 10 10 10 9 10 12 13 13 12 12 12 12 11 10 9 9 9 9 8 8 8 8 9 9 8 8 8 8 8 8 8 7 7 7 7 7 6
6 6 7 7 7 7 8 9 9 9 10 10 11 13 12 11 11 11 11 10 9 9 8 8 8 8 8 8 8 8 8 8 8 8 8 8 7 7 7 7 7 6 6 6
6 6 7 8 9 8 7 7 8 9 9 10 11 12 12 12 11 11 10 9 9 8 8 7 7 7 7 7 7 7 7 7 7 7 7 7 7 7 6 6 6 6 5 5
6 5 6 7 8 8 7 7 7 8 9 9 11 11 12 12 11 10 9 8 8 7 7 6 6 6 6 6 7 7 7 7 7 7 6 6 6 6 6 6 5 5 5 5
5 5 5 6 7 7 7 7 8 8 8 9 9 10 11 10 10 9 9 8 7 7 6 6 6 6 6 6 6 6 6 6 6 6 6 6 6 5 5 5 5 4 4 4
4 4 5 6 6 6 6 7 8 8 8 8 9 10 10 9 9 8 8 7 7 6 6 5 5 5 5 5 5 5 5 5 5 5 5 5 5 5 4 4 4 4 3 3
4 4 4 5 5 5 8 7 8 8 8 8 8 9 8 8 7 7 7 7 6 6 5 5 5 5 5 5 5 5 5 5 5 4 4 4 4 4 4 4 3 3 3 3
4 4 4 5 5 6 7 6 6 6 7 7 7 8 7 6 6 6 5 5 5 5 5 5 5 5 4 4 4 4 4 4 4 4 3 3 3 3 3 3 3 2 2 2
3 4 4 4 5 6 7 6 5 6 6 6 7 6 6 6 7 7 4 4 4 4 4 4 4 4 4 4 4 4 4 3 3 3 3 3 3 2 2 2 2 2 2 1
3 3 3 4 4 6 5 4 5 6 6 5 5 5 5 5 6 4 4 3 4 4 4 4 4 4 4 4 3 3 3 3 3 3 2 2 2 2 2 1 1 1 1 1
3 3 3 4 4 4 4 4 5 5 4 4 4 4 4 3 3 3 3 3 3 3 3 3 3 3 3 3 3 3 2 2 2 2 2 2 1 1 1 1 0 0 0 -0
3 3 4 4 4 3 3 3 3 3 3 3 3 3 3 2 2 2 2 2 2 2 2 2 2 2 2 2 2 2 2 1 1 1 1 1 1 0 0 -0 -0 -0 -1 -1
2 2 3 3 3 3 2 2 2 2 2 2 2 2 2 2 2 1 1 2 2 2 2 2 2 2 1 1 1 1 1 1 0 0 0 0 -0 -0 -1 -1 -1 -1 -1 -2
2 2 2 2 3 2 2 2 2 2 2 1 1 1 1 1 1 1 1 1 1 1 1 1 1 1 1 0 0 0 -0 -0 -0 -0 -0 -1 -1 -1 -1 -1 -2 -2 -2 -2
1 1 2 3 3 2 2 1 1 1 1 1 0 0 1 1 1 1 0 0 0 0 0 0 0 0 0 -0 -0 -0 -1 -1 -1 -1 -1 -1 -2 -2 -2 -2 -2 -2 -2 -3
Wind_Speed
10 11 15 18 19 10 8 9 10 8 5 8 14 18 16 14 14 15 14 13 12 11 9 7 7 8 8 8 8 9 9 9 8 7 6 6 5 4 3 2 3 3 3 3
9 17 16 12 13 12 11 11 10 6 5 7 13 19 17 15 15 14 14 13 12 10 9 7 7 7 8 8 8 9 9 9 9 8 7 5 5 4 3 2 2 3 3 3
16 7 11 14 14 15 15 15 12 8 5 7 10 14 13 11 11 11 11 12 11 11 11 9 8 8 8 8 8 8 9 9 9 9 7 6 4 4 3 3 2 2 3 3
15 10 10 15 17 16 14 12 11 9 7 6 5 8 10 8 9 10 10 10 11 10 10 9 9 8 8 7 6 7 8 8 9 9 9 9 7 6 5 4 3 2 2 3
11 10 14 16 16 16 8 6 9 9 9 9 9 9 10 7 10 10 9 9 9 10 10 9 9 9 7 6 6 6 7 8 9 9 9 9 7 6 4 4 4 3 2 2
10 7 10 11 10 13 8 6 4 4 6 9 13 12 10 8 9 8 8 8 8 9 9 9 8 7 6 5 5 6 7 7 8 9 9 9 9 8 7 6 5 3 2 2
10 10 8 6 9 12 11 8 5 6 8 9 7 10 10 6 6 7 7 7 8 8 8 8 8 7 7 6 6 6 7 7 7 8 8 8 9 8 8 6 5 4 3 2
11 10 13 11 12 12 17 14 9 8 8 5 6 10 7 4 5 6 6 6 6 6 7 7 7 7 7 7 6 7 7 7 7 7 7 7 7 6 5 6 5 4 3 3
9 7 7 10 9 11 12 14 9 4 3 6 8 7 7 6 6 6 6 6 6 5 6 6 6 6 6 7 7 7 7 7 7 7 7 6 6 5 5 4 4 3 3 2
5 5 6 7 7 9 8 9 7 7 7 8 8 9 7 7 8 7 6 6 5 4 4 5 6 6 6 6 6 7 7 7 7 6 6 5 5 4 4 3 3 3 2 2
5 5 5 8 11 13 10 10 8 7 6 7 7 5 3 5 6 6 6 5 5 4 4 5 5 6 6 6 6 6 6 7 6 6 6 5 4 4 3 3 2 2 2 1
5 4 5 7 5 7 12 12 12 8 7 7 6 4 2 2 2 3 4 3 3 3 3 4 4 5 6 6 6 6 6 6 6 5 5 5 4 3 3 2 2 1 1 1
5 5 5 5 4 5 9 12 13 8 6 8 8 6 2 1 2 2 3 3 3 2 2 3 4 5 5 6 6 6 6 5 5 5 5 4 4 3 2 2 1 1 1 1
3 4 7 8 4 6 8 12 14 12 9 11 14 12 8 5 4 4 3 3 4 3 3 3 4 4 5 5 6 6 5 5 5 5 4 4 3 3 2 1 1 1 1 1
3 4 6 7 5 7 9 13 15 17 17 13 14 15 13 9 7 6 5 4 4 4 4 4 4 4 4 5 5 5 5 5 5 5 4 4 3 2 2 2 1 1 1 2
3 3 4 6 6 7 9 13 16 19 18 18 17 17 12 8 6 5 6 5 5 5 4 4 4 4 5 5 5 5 4 4 5 5 4 3 3 2 2 1 1 1 2 2
4 3 3 4 4 4 10 12 15 14 14 15 17 15 9 8 7 6 6 6 6 5 5 4 4 4 4 4 5 5 5 5 4 4 3 3 2 2 2 1 1 2 3 3
6 6 3 3 4 8 4 2 8 12 13 13 12 10 8 7 6 6 5 6 6 4 4 4 3 3 4 4 4 4 5 4 4 3 2 2 2 2 1 2 2 2 3 3
10 7 4 4 5 7 4 2 3 7 8 8 9 7 4 2 2 3 2 3 4 3 3 3 3 4 4 4 4 5 5 4 4 3 2 1 2 2 2 2 3 3 3 3
7 8 5 5 5 6 2 2 2 4 6 2 4 5 3 2 4 3 1 1 1 1 1 2 3 4 4 4 5 5 4 3 3 2 1 1 1 2 2 2 2 3 3 3
5 5 8 7 6 5 3 3 2 5 1 1 1 1 2 3 3 1 1 1 1 1 2 3 3 3 3 4 5 4 4 3 2 2 1 1 1 1 2 2 2 2 3 3
4 4 5 5 5 4 2 1 2 2 4 3 2 2 1 1 0 0 1 0 1 2 2 3 3 3 3 4 4 4 3 2 2 2 1 1 1 1 1 2 2 3 3 4
3 3 2 3 3 1 0 1 2 3 3 3 3 3 1 1 1 0 0 0 1 2 2 2 3 4 3 3 3 3 2 2 2 2 1 0 0 1 1 2 2 2 3 3
2 2 2 2 3 3 2 3 4 5 4 4 3 2 1 1 1 1 0 0 1 1 2 3 4 4 3 2 2 2 2 2 2 1 1 0 1 1 2 2 2 3 3 3
4 2 3 4 5 3 4 4 4 4 4 4 4 3 1 1 1 1 1 1 1 1 2 2 3 3 3 2 2 2 2 2 1 1 0 0 1 2 2 2 3 3 4 4
3 4 4 4 3 3 4 4 4 3 4 4 3 3 2 0 1 1 1 1 1 2 2 2 3 3 2 2 2 1 1 1 1 0 1 1 1 2 2 3 3 4 5 7
Wind_Direction
184 201 210 207 211 230 218 222 233 237 233 245 252 261 263 257 251 249 246 242 237 234 230 220 212 209 206 202 197 194 191 185 179 177 177 179 181 179 174 172 174 180 181 183
188 220 220 212 210 216 219 227 237 248 242 253 268 270 267 256 247 246 244 239 231 227 221 212 204 200 201 200 197 196 193 189 187 185 183 183 177 179 175 170 178 185 183 185
210 211 203 199 202 210 223 228 232 240 263 253 280 273 252 244 242 241 239 236 231 225 219 212 206 201 198 200 199 197 195 191 188 182 174 166 164 169 177 183 187 191 188 194
224 217 193 201 209 210 226 226 229 232 243 252 252 278 256 241 239 231 230 228 226 221 217 211 206 202 201 201 194 194 193 191 187 182 182 180 184 186 196 190 189 196 201 204
214 201 198 207 211 206 217 198 209 221 235 257 239 254 264 235 235 228 226 224 219 215 211 208 204 201 200 194 190 188 187 187 186 186 185 185 186 185 180 180 183 193 208 215
225 207 210 215 207 197 171 154 170 205 227 247 232 229 261 229 232 228 226 219 214 211 208 208 203 196 194 187 182 183 182 185 184 184 184 186 184 182 180 184 188 195 205 223
217 219 210 196 177 182 186 176 186 202 215 237 207 223 249 243 233 231 223 212 209 207 204 202 196 194 193 187 181 181 180 183 184 183 186 188 188 188 189 191 195 199 208 230
203 214 202 197 200 191 197 200 206 215 224 222 204 231 243 243 242 235 228 212 203 202 202 200 198 195 191 185 181 179 180 182 182 182 185 186 188 191 194 196 198 202 214 228
203 209 182 194 200 195 192 210 226 241 263 249 229 240 264 234 226 216 212 203 200 201 201 199 198 194 190 186 184 181 178 179 181 180 179 180 181 182 188 194 200 203 211 224
210 206 185 180 184 207 211 188 190 209 213 235 238 236 228 200 202 199 203 204 201 197 197 198 196 192 189 185 182 179 178 176 176 176 175 175 178 177 180 184 192 196 204 223
209 195 176 179 199 192 185 192 200 202 226 234 242 238 209 218 206 202 201 203 199 194 196 196 188 183 179 177 175 174 172 171 170 170 170 168 165 165 170 176 182 182 192 216
204 202 205 207 208 217 206 203 196 200 209 226 248 248 132 231 220 209 200 198 206 203 195 187 178 173 171 170 168 166 167 167 167 163 161 158 154 159 166 167 174 181 196 247
179 190 185 189 197 197 214 213 211 216 214 217 230 240 163 224 242 233 224 227 219 207 195 183 176 174 171 168 166 163 163 163 160 156 153 152 155 158 161 163 172 196 219 281
196 214 226 223 217 185 204 210 210 211 221 229 235 249 251 258 264 262 248 245 236 219 204 195 187 181 174 169 166 162 160 159 158 157 154 157 161 160 157 158 183 235 268 291
208 227 239 252 240 204 213 214 212 220 228 235 244 249 258 262 265 260 246 235 226 216 203 202 198 187 176 169 167 163 158 156 158 160 161 162 162 160 160 173 195 234 274 287
218 233 234 243 236 228 236 232 225 228 234 240 249 256 262 271 267 252 246 233 221 214 208 204 197 182 178 174 170 163 162 157 157 160 162 162 165 166 174 192 220 260 280 284
208 208 217 236 228 249 248 236 228 227 228 231 240 247 250 260 259 255 248 234 228 214 206 200 197 189 180 174 167 163 158 150 152 156 159 162 166 176 197 209 234 258 272 282
214 212 216 214 204 232 243 225 228 230 235 233 240 249 250 258 271 274 255 234 227 218 206 195 187 177 166 156 152 146 144 146 147 150 157 160 171 191 217 242 254 263 272 282
215 205 204 207 227 255 260 252 221 220 239 238 236 245 251 257 274 268 259 228 227 223 209 188 174 163 156 153 148 143 140 141 146 152 157 163 183 204 224 245 261 269 274 284
202 208 211 211 226 239 270 334 277 214 239 247 234 226 226 208 242 248 94 131 157 161 159 153 149 146 148 150 146 143 145 150 162 168 172 185 210 226 240 253 266 273 277 284
180 201 217 222 232 253 323 318 203 202 271 19 300 225 227 250 260 324 37 64 88 95 118 133 142 150 153 151 150 150 152 166 173 165 172 203 228 245 258 271 274 278 284 290
196 199 209 217 226 245 10 106 203 316 344 339 334 313 295 301 64 54 358 352 92 95 106 126 140 143 142 146 149 153 160 160 152 158 174 201 261 290 280 275 285 290 290 291
221 231 231 220 233 336 353 280 319 340 337 331 331 334 331 304 277 290 317 78 93 97 108 124 133 128 125 136 150 156 156 141 145 152 159 131 346 314 288 279 285 292 289 288
255 270 236 251 263 286 306 332 342 344 343 351 352 341 327 267 271 309 337 124 120 102 114 127 127 124 119 122 132 147 143 147 155 159 154 47 339 315 303 296 284 283 285 287
265 235 240 250 267 291 297 317 334 347 353 4 2 351 316 185 221 238 207 182 151 120 113 123 125 124 120 114 112 111 123 139 144 149 147 331 309 292 293 294 290 288 287 290
247 238 242 254 267 270 289 318 333 337 338 342 347 348 340 275 192 183 193 171 136 122 116 122 123 122 118 110 95 78 90 123 137 194 284 288 284 287 287 292 299 293 290 301
Height
1470 1471 1465 1464 1467 1467 1468 1469 1469 1471 1475 1476 1471 1466 1464 1465 1466 1466 1466 1467 1468 1469 1471 1472 1473 1474 1476 1478 1479 1481 1483 1485 1487 1488 1490 1491 1492 1494 1495 1496 1496 1497 1497 1497
1467 1463 1459 1464 1467 1469 1469 1470 1469 1472 1475 1474 1468 1462 1458 1459 1459 1460 1460 1461 1463 1465 1466 1467 1468 1470 1471 1473 1475 1477 1479 1481 1483 1484 1486 1488 1489 1490 1491 1492 1493 1494 1494 1494
1455 1456 1459 1464 1466 1468 1468 1467 1467 1470 1472 1472 1470 1456 1451 1451 1454 1455 1456 1456 1457 1459 1460 1462 1464 1465 1467 1469 1471 1473 1475 1477 1479 1481 1483 1485 1486 1487 1488 1489 1490 1490 1491 1491
1454 1456 1459 1460 1461 1463 1464 1465 1468 1471 1471 1467 1469 1456 1441 1444 1447 1448 1450 1451 1452 1454 1456 1457 1459 1461 1463 1465 1467 1469 1471 1473 1475 1477 1479 1480 1481 1483 1484 1485 1486 1487 1488 1488
1450 1453 1456 1457 1456 1461 1461 1465 1468 1469 1469 1469 1466 1465 1438 1441 1441 1440 1443 1445 1447 1450 1451 1453 1455 1457 1459 1461 1463 1465 1468 1470 1471 1473 1475 1477 1478 1480 1481 1482 1483 1484 1484 1485
1449 1452 1453 1451 1455 1459 1463 1466 1469 1469 1470 1468 1455 1457 1436 1433 1433 1435 1438 1441 1443 1445 1447 1449 1451 1454 1456 1458 1460 1462 1464 1466 1468 1469 1471 1473 1475 1476 1477 1478 1479 1480 1481 1481
1448 1449 1450 1451 1453 1458 1460 1463 1466 1467 1466 1452 1448 1449 1433 1429 1432 1433 1435 1437 1439 1441 1444 1445 1447 1450 1452 1454 1456 1458 1461 1462 1464 1465 1467 1469 1471 1473 1474 1475 1476 1476 1477 1477
1441 1441 1443 1446 1446 1449 1452 1452 1451 1450 1444 1440 1449 1441 1427 1429 1431 1432 1434 1435 1437 1438 1440 1442 1444 1446 1448 1450 1452 1455 1457 1459 1460 1462 1464 1465 1467 1469 1470 1471 1472 1472 1473 1473
1435 1435 1439 1442 1444 1445 1448 1449 1446 1447 1448 1443 1435 1432 1428 1426 1428 1430 1431 1433 1434 1436 1437 1439 1441 1444 1446 1447 1449 1452 1453 1455 1457 1459 1460 1462 1464 1465 1467 1468 1469 1469 1469 1470
1434 1436 1437 1441 1444 1445 1443 1444 1449 1449 1447 1437 1427 1427 1419 1419 1422 1426 1428 1429 1432 1434 1435 1437 1439 1441 1443 1445 1447 1449 1451 1452 1454 1455 1457 1459 1461 1462 1463 1464 1465 1465 1466 1466
1435 1436 1438 1440 1438 1437 1443 1445 1441 1440 1438 1432 1424 1419 1415 1417 1419 1422 1425 1428 1430 1431 1433 1435 1436 1438 1440 1442 1444 1445 1447 1449 1451 1453 1454 1456 1457 1459 1460 1460 1461 1461 1462 1462
1435 1433 1433 1434 1435 1435 1434 1434 1436 1437 1439 1435 1425 1420 1418 1419 1421 1422 1424 1427 1428 1430 1431 1433 1434 1436 1437 1439 1441 1443 1444 1446 1448 1450 1451 1453 1454 1456 1457 1457 1458 1458 1458 1458
1433 1434 1432 1431 1437 1438 1435 1433 1433 1434 1434 1432 1428 1420 1418 1420 1421 1422 1424 1425 1427 1428 1430 1431 1433 1434 1435 1436 1438 1440 1442 1444 1446 1447 1449 1450 1452 1453 1453 1454 1454 1455 1454 1454
1431 1431 1426 1419 1417 1425 1431 1432 1432 1433 1431 1427 1422 1416 1415 1418 1420 1422 1423 1425 1426 1427 1428 1429 1431 1432 1433 1434 1436 1438 1440 1442 1443 1445 1446 1447 1449 1450 1450 1451 1451 1451 1451 1451
1430 1428 1426 1422 1421 1423 1424 1426 1428 1428 1424 1424 1417 1416 1414 1417 1419 1421 1423 1424 1425 1426 1427 1428 1429 1430 1431 1432 1434 1436 1437 1439 1441 1442 1443 1445 1446 1446 1447 1448 1448 1448 1448 1447
1429 1427 1426 1423 1421 1421 1422 1421 1422 1422 1422 1421 1419 1417 1414 1417 1419 1421 1421 1422 1423 1424 1425 1426 1427 1428 1429 1430 1432 1433 1435 1437 1438 1439 1441 1442 1442 1443 1444 1444 1445 1445 1444 1443
1428 1427 1424 1420 1422 1421 1418 1414 1414 1415 1415 1417 1415 1413 1414 1416 1417 1418 1420 1421 1421 1422 1423 1424 1425 1426 1427 1428 1430 1431 1433 1434 1436 1437 1438 1439 1440 1440 1441 1441 1441 1440 1440 1439
1426 1425 1424 1421 1423 1421 1408 1410 1410 1410 1410 1412 1412 1412 1413 1415 1416 1417 1418 1419 1420 1420 1421 1422 1423 1424 1425 1427 1428 1429 1431 1432 1434 1435 1435 1436 1437 1437 1437 1437 1437 1436 1436 1435
1422 1423 1422 1420 1415 1407 1407 1410 1411 1410 1408 1410 1411 1411 1413 1414 1414 1415 1416 1417 1417 1418 1419 1420 1421 1422 1423 1425 1426 1428 1429 1430 1431 1432 1433 1434 1434 1434 1434 1434 1433 1432 1431 1430
1420 1421 1421 1418 1413 1407 1405 1409 1410 1411 1408 1409 1409 1410 1411 1412 1411 1413 1415 1415 1415 1416 1417 1417 1419 1420 1422 1424 1425 1426 1427 1428 1429 1431 1431 1431 1432 1431 1431 1430 1430 1429 1428 1426
1418 1419 1418 1415 1412 1406 1411 1411 1410 1410 1407 1410 1410 1410 1411 1411 1411 1413 1413 1413 1414 1414 1415 1416 1417 1419 1420 1422 1423 1424 1425 1426 1428 1428 1429 1429 1429 1429 1428 1427 1426 1425 1424 1422
1414 1414 1415 1414 1413 1412 1413 1412 1412 1411 1411 1411 1410 1411 1411 1411 1411 1412 1412 1413 1412 1413 1413 1414 1416 1417 1418 1420 1421 1422 1423 1424 1425 1426 1426 1426 1426 1425 1425 1424 1423 1421 1420 1418
1415 1414 1412 1412 1413 1413 1413 1413 1413 1412 1411 1410 1410 1410 1410 1410 1410 1411 1411 1411 1412 1412 1412 1413 1414 1415 1416 1418 1419 1420 1421 1422 1422 1423 1423 1423 1423 1422 1422 1421 1419 1418 1416 1414
1415 1416 1414 1414 1412 1413 1413 1412 1412 1411 1410 1410 1409 1410 1410 1410 1410 1410 1410 1411 1411 1411 1412 1412 1413 1414 1415 1416 1417 1418 1419 1419 1420 1420 1421 1420 1420 1420 1419 1418 1417 1415 1413 1411
1415 1415 1414 1412 1413 1412 1412 1411 1411 1411 1410 1409 1409 1409 1409 1409 1409 1410 1410 1410 1410 1410 1411 1411 1412 1412 1413 1414 1416 1417 1417 1418 1418 1418 1418 1418 1418 1417 1416 1415 1413 1412 1410 1408
1415 1414 1412 1409 1411 1411 1411 1411 1410 1410 1409 1409 1408 1407 1407 1408 1408 1408 1408 1409 1409 1409 1410 1410 1411 1411 1412 1413 1414 1415 1416 1416 1416 1416 1416 1416 1415 1414 1413 1412 1410 1408 1406 1404